Aérodrome :







RETROUVEZ-NOUS SUR...

 
LOGIN :

S'inscrire | Disclaimer

   EN    FR    IT 

 









Légende :    VFR   VFR Marginal   IFR   IFR Intensif   IFR Très Intensif
Visi : 
Plafond : 
>= 8 km
>= 3000ft
5 à 8 km
1000 à 3000 ft
1500m à 5 km
500 à 1000 ft
800 à 1500m
200 à 500 ft
< 800m
< 200 ft
Symboles :   Orages  Brouillard  Fortes neiges  Fortes précipitations  Vent > 20 kt






- Altitude de l'aérodrome : 377 ft
- Code IATA : YPS


CYPD - Port Hawkesbury

DERNIER METAR :
  • 271300Z AUTO 28005KT 9SM OVC017 18/17 A3020 RMK SLP228 DENSITY ALT 500FT

METARs EXPIRÉS :
  • 271242Z AUTO 27006KT 9SM OVC017 18/17 A3019 RMK SLP226 DENSITY ALT 500FT
  • 271213Z AUTO 24004KT 210V280 9SM -RA OVC017 18/16 A3019 RMK SLP225 DENSITY ALT 500FT
  • 271200Z AUTO 26005KT 9SM OVC017 18/16 A3019 RMK SLP226 DENSITY ALT 500FT
  • 271100Z AUTO 26004KT 220V290 9SM OVC017 18/16 A3018 RMK SLP223 DENSITY ALT 500FT

TAF N/A
FIR CZQM / Amérique du Nord



MET'MAP, la Météo Aéronautique d'un coup d'oeil ! - Copyright ORBIFLY Décembre 2007 - Disclaimer

ORBIFLY MET'MAP TEAM :

Programmation & Développement : Alexandra Zaïnal
Sur une idée originale de : Baudouin d'Aumeries
Assistance à la programmation : Marc-Olivier Méhu
Soutien technique & logistique : Manuel Goepfert

Contact : metmap@orbifly.com




SOURCES & CREDITS :

   NOAA